| time (UTC) | temp C | wind direction | speed KPH | gust KPH | rain 1hr cm | rain 24hr cm | rain mn cm | humidity % | barometer mb |
| 20260507105409 | 8 | 196 | 0.0 | 1.6 | 0.00 | 0.00 | 0.00 | 57 | 1012.3 |
| 20260507104906 | 8 | 200 | 0.0 | 0.0 | 0.00 | 0.00 | 0.00 | 60 | 1012.2 |
| 20260507104402 | 8 | 228 | 1.6 | 3.2 | 0.00 | 0.00 | 0.00 | 63 | 1012.1 |
| 20260507103858 | 8 | 209 | 0.0 | 0.0 | 0.00 | 0.00 | 0.00 | 55 | 1012.2 |
| 20260507103355 | 8 | 189 | 0.0 | 1.6 | 0.00 | 0.00 | 0.00 | 58 | 1012.2 |
| 20260507102851 | 7 | 260 | 1.6 | 1.6 | 0.00 | 0.00 | 0.00 | 61 | 1012.0 |
| 20260507102348 | 7 | 185 | 0.0 | 0.0 | 0.00 | 0.00 | 0.00 | 57 | 1012.0 |
| 20260507101844 | 7 | 210 | 0.0 | 1.6 | 0.00 | 0.00 | 0.00 | 62 | 1012.0 |
| 20260507101344 | 7 | 177 | 0.0 | 1.6 | 0.00 | 0.00 | 0.00 | 57 | 1011.9 |
| 20260507100842 | 7 | 170 | 1.6 | 1.6 | 0.00 | 0.00 | 0.00 | 64 | 1011.9 |
| 20260507100340 | 7 | 184 | 0.0 | 1.6 | 0.00 | 0.00 | 0.00 | 54 | 1011.6 |
| 20260507095838 | 8 | 197 | 3.2 | 4.8 | 0.00 | 0.00 | 0.00 | 55 | 1011.7 |
| 20260507095334 | 8 | 171 | 4.8 | 4.8 | 0.00 | 0.00 | 0.00 | 52 | 1011.9 |
| 20260507094831 | 8 | 232 | 1.6 | 3.2 | 0.00 | 0.00 | 0.00 | 54 | 1011.7 |
| 20260507094327 | 8 | 210 | 8.0 | 9.7 | 0.00 | 0.00 | 0.00 | 54 | 1011.3 |
| 20260507093824 | 9 | 210 | 1.6 | 1.6 | 0.00 | 0.00 | 0.00 | 54 | 1011.3 |
| 20260507093323 | 9 | 144 | 4.8 | 4.8 | 0.00 | 0.00 | 0.00 | 48 | 1011.7 |
| 20260507092821 | 8 | 100 | 6.4 | 11.3 | 0.00 | 0.00 | 0.00 | 50 | 1011.6 |
| 20260507092317 | 8 | 203 | 0.0 | 0.0 | 0.00 | 0.00 | 0.00 | 54 | 1011.4 |
| 20260507091813 | 9 | 195 | 1.6 | 3.2 | 0.00 | 0.00 | 0.00 | 43 | 1011.3 |
| 20260507091311 | 9 | 197 | 1.6 | 1.6 | 0.00 | 0.00 | 0.00 | 57 | 1011.6 |
| 20260507090810 | 8 | 114 | 1.6 | 3.2 | 0.00 | 0.00 | 0.00 | 53 | 1011.4 |
| 20260507090307 | 9 | 199 | 0.0 | 0.0 | 0.00 | 0.00 | 0.00 | 56 | 1011.2 |
| 20260507085804 | 10 | 215 | 1.6 | 3.2 | 0.00 | 0.00 | 0.00 | 51 | 1011.2 |
| 20260507085301 | 10 | 228 | 9.7 | 12.9 | 0.00 | 0.00 | 0.00 | 47 | 1011.1 |
| 20260507084759 | 9 | 203 | 1.6 | 1.6 | 0.00 | 0.00 | 0.00 | 49 | 1011.7 |
| 20260507084255 | 9 | 207 | 0.0 | 1.6 | 0.00 | 0.00 | 0.00 | 59 | 1011.4 |
| 20260507083753 | 10 | 212 | 1.6 | 1.6 | 0.00 | 0.00 | 0.00 | 55 | 1011.4 |
| 20260507083249 | 9 | 194 | 0.0 | 1.6 | 0.00 | 0.00 | 0.00 | 54 | 1011.4 |
| 20260507082745 | 10 | 167 | 1.6 | 3.2 | 0.00 | 0.00 | 0.00 | 55 | 1011.4 |
| 20260507082241 | 10 | 205 | 1.6 | 1.6 | 0.00 | 0.00 | 0.00 | 60 | 1011.7 |
| 20260507081738 | 10 | 198 | 0.0 | 0.0 | 0.00 | 0.00 | 0.00 | 51 | 1011.6 |
| 20260507081234 | 10 | 214 | 1.6 | 1.6 | 0.00 | 0.00 | 0.00 | 53 | 1011.3 |
| 20260507080731 | 10 | 181 | 3.2 | 3.2 | 0.00 | 0.00 | 0.00 | 47 | 1011.6 |
| 20260507080227 | 10 | 238 | 1.6 | 3.2 | 0.00 | 0.00 | 0.00 | 55 | 1011.8 |
| 20260507075722 | 10 | 209 | 1.6 | 1.6 | 0.00 | 0.00 | 0.00 | 55 | 1011.6 |
| 20260507075219 | 10 | 172 | 0.0 | 0.0 | 0.00 | 0.00 | 0.00 | 57 | 1011.6 |
| 20260507074715 | 10 | 239 | 4.8 | 4.8 | 0.00 | 0.00 | 0.00 | 50 | 1011.6 |
| 20260507074214 | 10 | 204 | 3.2 | 3.2 | 0.00 | 0.00 | 0.00 | 49 | 1011.4 |
| 20260507073710 | 9 | 203 | 1.6 | 1.6 | 0.00 | 0.00 | 0.00 | 55 | 1011.3 |
| 20260507073207 | 10 | 146 | 3.2 | 4.8 | 0.00 | 0.00 | 0.00 | 60 | 1011.3 |
| 20260507072705 | 10 | 190 | 3.2 | 4.8 | 0.00 | 0.00 | 0.00 | 51 | 1011.6 |
| 20260507072201 | 10 | 212 | 1.6 | 1.6 | 0.00 | 0.00 | 0.00 | 52 | 1011.6 |
| 20260507071659 | 10 | 206 | 1.6 | 1.6 | 0.00 | 0.00 | 0.00 | 53 | 1011.6 |
| 20260507071155 | 8 | 215 | 1.6 | 1.6 | 0.00 | 0.00 | 0.00 | 62 | 1011.7 |
| 20260507070653 | 9 | 219 | 0.0 | 1.6 | 0.00 | 0.00 | 0.00 | 64 | 1011.8 |
| 20260507070149 | 8 | 203 | 1.6 | 1.6 | 0.00 | 0.00 | 0.00 | 70 | 1011.3 |
| 20260507065646 | 8 | 198 | 0.0 | 0.0 | 0.00 | 0.00 | 0.00 | 66 | 1011.9 |
| 20260507065143 | 9 | 200 | 0.0 | 0.0 | 0.00 | 0.00 | 0.00 | 65 | 1011.7 |
| 20260507064640 | 10 | 188 | 3.2 | 3.2 | 0.00 | 0.00 | 0.00 | 61 | 1011.7 |
| 20260507064139 | 10 | 204 | 4.8 | 4.8 | 0.00 | 0.00 | 0.00 | 53 | 1011.9 |
| 20260507063636 | 10 | 207 | 1.6 | 1.6 | 0.00 | 0.00 | 0.00 | 54 | 1011.7 |
| 20260507063132 | 9 | 102 | 3.2 | 4.8 | 0.00 | 0.00 | 0.00 | 60 | 1011.9 |
| 20260507062629 | 9 | 186 | 0.0 | 1.6 | 0.00 | 0.00 | 0.00 | 64 | 1012.0 |
| 20260507062127 | 10 | 209 | 1.6 | 1.6 | 0.00 | 0.00 | 0.00 | 64 | 1011.8 |
| 20260507061624 | 10 | 204 | 0.0 | 0.0 | 0.00 | 0.00 | 0.00 | 61 | 1011.8 |
| 20260507061122 | 10 | 204 | 0.0 | 1.6 | 0.00 | 0.00 | 0.00 | 58 | 1011.7 |
| 20260507060620 | 10 | 237 | 1.6 | 3.2 | 0.00 | 0.00 | 0.00 | 63 | 1011.9 |
| 20260507060116 | 10 | 182 | 1.6 | 1.6 | 0.00 | 0.00 | 0.00 | 62 | 1011.7 |
| 20260507055611 | 11 | 169 | 1.6 | 1.6 | 0.00 | 0.00 | 0.00 | 56 | 1011.9 |
| 20260507055108 | 11 | 192 | 1.6 | 1.6 | 0.00 | 0.00 | 0.00 | 52 | 1011.7 |
| 20260507054604 | 10 | 205 | 1.6 | 1.6 | 0.00 | 0.00 | 0.00 | 53 | 1011.8 |
| 20260507054101 | 10 | 203 | 0.0 | 0.0 | 0.00 | 0.00 | 0.00 | 66 | 1011.7 |
| 20260507053559 | 10 | 210 | 1.6 | 3.2 | 0.00 | 0.00 | 0.00 | 58 | 1012.0 |
| 20260507053057 | 10 | 202 | 0.0 | 0.0 | 0.00 | 0.00 | 0.00 | 63 | 1011.7 |
| 20260507052555 | 10 | 192 | 0.0 | 0.0 | 0.00 | 0.00 | 0.00 | 54 | 1011.7 |
| 20260507052051 | 11 | 242 | 3.2 | 3.2 | 0.00 | 0.00 | 0.00 | 56 | 1011.8 |
| 20260507051549 | 10 | 174 | 1.6 | 1.6 | 0.00 | 0.00 | 0.00 | 53 | 1011.7 |
| 20260507051045 | 10 | 210 | 1.6 | 1.6 | 0.00 | 0.00 | 0.00 | 61 | 1012.2 |
| 20260507050542 | 10 | 199 | 0.0 | 0.0 | 0.00 | 0.00 | 0.00 | 59 | 1012.0 |
| 20260507050038 | 11 | 201 | 1.6 | 1.6 | 0.00 | 0.00 | 0.00 | 50 | 1012.0 |
| 20260507045535 | 11 | 201 | 0.0 | 0.0 | 0.00 | 0.00 | 0.00 | 64 | 1011.9 |
| 20260507045032 | 11 | 205 | 0.0 | 1.6 | 0.00 | 0.00 | 0.00 | 60 | 1012.2 |
| 20260507044529 | 11 | 210 | 1.6 | 1.6 | 0.00 | 0.00 | 0.00 | 48 | 1011.8 |
| 20260507044026 | 11 | 162 | 3.2 | 3.2 | 0.00 | 0.00 | 0.00 | 58 | 1011.9 |
| 20260507043522 | 11 | 204 | 0.0 | 1.6 | 0.00 | 0.00 | 0.00 | 55 | 1012.1 |
| 20260507043020 | 11 | 214 | 3.2 | 3.2 | 0.00 | 0.00 | 0.00 | 48 | 1012.0 |
| 20260507042515 | 11 | 212 | 1.6 | 3.2 | 0.00 | 0.00 | 0.00 | 50 | 1012.0 |
| 20260507042011 | 11 | 189 | 4.8 | 4.8 | 0.00 | 0.00 | 0.00 | 51 | 1012.1 |
| 20260507041509 | 11 | 211 | 3.2 | 4.8 | 0.00 | 0.00 | 0.00 | 52 | 1011.8 |
| 20260507041006 | 11 | 177 | 1.6 | 1.6 | 0.00 | 0.00 | 0.00 | 52 | 1011.8 |
| 20260507040502 | 11 | 167 | 0.0 | 1.6 | 0.00 | 0.00 | 0.00 | 52 | 1011.7 |
| 20260507035957 | 11 | 188 | 1.6 | 3.2 | 0.00 | 0.66 | 0.66 | 54 | 1011.4 |
| 20260507035454 | 12 | 156 | 1.6 | 3.2 | 0.00 | 0.66 | 0.66 | 53 | 1011.4 |
| 20260507034950 | 12 | 165 | 6.4 | 8.0 | 0.00 | 0.66 | 0.66 | 55 | 1011.4 |
| 20260507034447 | 12 | 197 | 3.2 | 8.0 | 0.00 | 0.66 | 0.66 | 69 | 1011.7 |
| 20260507033945 | 12 | 181 | 1.6 | 3.2 | 0.00 | 0.66 | 0.66 | 72 | 1011.7 |
| 20260507033443 | 12 | 192 | 4.8 | 4.8 | 0.00 | 0.66 | 0.66 | 71 | 1011.3 |
| 20260507032939 | 12 | 194 | 1.6 | 1.6 | 0.00 | 0.66 | 0.66 | 71 | 1011.4 |
| 20260507032437 | 12 | 175 | 4.8 | 4.8 | 0.00 | 0.66 | 0.66 | 71 | 1011.3 |
| 20260507031932 | 12 | 205 | 3.2 | 3.2 | 0.00 | 0.66 | 0.66 | 72 | 1011.2 |
| 20260507031429 | 12 | 229 | 3.2 | 4.8 | 0.00 | 0.66 | 0.66 | 73 | 1011.6 |
| 20260507030926 | 12 | 190 | 4.8 | 4.8 | 0.00 | 0.66 | 0.66 | 72 | 1011.1 |
| 20260507030423 | 12 | 173 | 1.6 | 1.6 | 0.00 | 0.66 | 0.66 | 71 | 1011.2 |
| 20260507025920 | 12 | 193 | 4.8 | 4.8 | 0.00 | 0.66 | 0.66 | 72 | 1011.1 |
| 20260507025418 | 12 | 197 | 1.6 | 3.2 | 0.00 | 0.66 | 0.66 | 72 | 1011.0 |
| 20260507024915 | 12 | 197 | 0.0 | 0.0 | 0.00 | 0.66 | 0.66 | 73 | 1011.0 |
| 20260507024412 | 12 | 197 | 1.6 | 3.2 | 0.00 | 0.66 | 0.66 | 73 | 1011.0 |
| 20260507023908 | 12 | 199 | 0.0 | 0.0 | 0.00 | 0.66 | 0.66 | 72 | 1010.7 |
| 20260507023405 | 12 | 190 | 0.0 | 1.6 | 0.00 | 0.66 | 0.66 | 74 | 1010.6 |
| 20260507022902 | 12 | 156 | 1.6 | 3.2 | 0.00 | 0.66 | 0.66 | 71 | 1010.6 |
| 20260507022359 | 12 | 200 | 0.0 | 0.0 | 0.00 | 0.66 | 0.66 | 79 | 1010.8 |
| 20260507021855 | 12 | 203 | 1.6 | 1.6 | 0.00 | 0.66 | 0.66 | 74 | 1010.9 |
| 20260507021350 | 12 | 211 | 0.0 | 1.6 | 0.00 | 0.66 | 0.66 | 74 | 1011.0 |
| 20260507020848 | 12 | 191 | 4.8 | 4.8 | 0.00 | 0.66 | 0.66 | 72 | 1010.8 |
| 20260507020344 | 12 | 229 | 4.8 | 4.8 | 0.00 | 0.66 | 0.66 | 74 | 1010.9 |
| 20260507015842 | 12 | 176 | 3.2 | 3.2 | 0.00 | 0.66 | 0.66 | 74 | 1010.8 |
| 20260507015340 | 12 | 202 | 3.2 | 3.2 | 0.00 | 0.66 | 0.66 | 73 | 1011.0 |
| 20260507014836 | 12 | 166 | 4.8 | 4.8 | 0.00 | 0.66 | 0.66 | 71 | 1010.7 |
| 20260507014333 | 12 | 213 | 0.0 | 0.0 | 0.00 | 0.66 | 0.66 | 71 | 1010.6 |
| 20260507013830 | 12 | 224 | 8.0 | 9.7 | 0.00 | 0.66 | 0.66 | 71 | 1011.3 |
| 20260507013327 | 12 | 209 | 4.8 | 8.0 | 0.00 | 0.66 | 0.66 | 76 | 1011.1 |
| 20260507012825 | 12 | 208 | 1.6 | 1.6 | 0.00 | 0.66 | 0.66 | 81 | 1011.0 |
| 20260507012320 | 12 | 207 | 0.0 | 1.6 | 0.00 | 0.66 | 0.66 | 82 | 1011.0 |
| 20260507011818 | 12 | 221 | 1.6 | 1.6 | 0.00 | 0.66 | 0.66 | 79 | 1011.3 |
| 20260507011315 | 12 | 198 | 0.0 | 0.0 | 0.00 | 0.66 | 0.66 | 75 | 1011.3 |
| 20260507010814 | 12 | 202 | 1.6 | 1.6 | 0.00 | 0.66 | 0.66 | 78 | 1011.7 |
| 20260507010310 | 13 | 202 | 0.0 | 0.0 | 0.00 | 0.66 | 0.66 | 75 | 1011.2 |
| 20260507005807 | 12 | 200 | 1.6 | 3.2 | 0.00 | 0.66 | 0.66 | 75 | 1011.2 |
| 20260507005305 | 13 | 203 | 1.6 | 1.6 | 0.00 | 0.66 | 0.66 | 76 | 1010.9 |
| 20260507004800 | 13 | 199 | 0.0 | 0.0 | 0.00 | 0.66 | 0.66 | 75 | 1010.7 |
| 20260507004258 | 13 | 196 | 1.6 | 3.2 | 0.00 | 0.66 | 0.66 | 74 | 1010.8 |
| 20260507003754 | 13 | 207 | 1.6 | 1.6 | 0.00 | 0.66 | 0.66 | 77 | 1011.1 |
| 20260507003249 | 13 | 199 | 4.8 | 4.8 | 0.00 | 0.66 | 0.66 | 75 | 1010.8 |
| 20260507002745 | 13 | 205 | 0.0 | 1.6 | 0.00 | 0.66 | 0.66 | 78 | 1010.9 |
| 20260507002241 | 13 | 220 | 4.8 | 4.8 | 0.00 | 0.66 | 0.66 | 76 | 1010.8 |
| 20260507001738 | 13 | 203 | 3.2 | 4.8 | 0.00 | 0.66 | 0.66 | 75 | 1010.6 |
| 20260507001236 | 13 | 206 | 3.2 | 3.2 | 0.00 | 0.66 | 0.66 | 75 | 1010.4 |
| 20260507000732 | 13 | 190 | 3.2 | 4.8 | 0.00 | 0.66 | 0.66 | 76 | 1010.3 |
| 20260507000227 | 13 | 191 | 3.2 | 3.2 | 0.00 | 0.66 | 0.66 | 76 | 1010.3 |
| 20260506235725 | 13 | 190 | 3.2 | 3.2 | 0.00 | 0.66 | 0.66 | 76 | 1010.0 |
| 20260506235220 | 13 | 159 | 1.6 | 1.6 | 0.00 | 0.66 | 0.66 | 76 | 1009.9 |
| 20260506234717 | 13 | 221 | 8.0 | 9.7 | 0.00 | 0.66 | 0.66 | 75 | 1009.7 |
| 20260506234215 | 13 | 194 | 6.4 | 8.0 | 0.00 | 0.66 | 0.66 | 75 | 1009.6 |
| 20260506233712 | 14 | 350 | 4.8 | 4.8 | 0.00 | 0.66 | 0.66 | 76 | 1009.6 |
| 20260506233208 | 14 | 199 | 4.8 | 4.8 | 0.00 | 0.66 | 0.66 | 75 | 1009.2 |
| 20260506232705 | 14 | 208 | 4.8 | 8.0 | 0.00 | 0.66 | 0.66 | 75 | 1009.4 |
| 20260506232200 | 14 | 219 | 3.2 | 4.8 | 0.00 | 0.66 | 0.66 | 76 | 1009.2 |
| 20260506231657 | 14 | 211 | 1.6 | 1.6 | 0.00 | 0.66 | 0.66 | 76 | 1009.3 |
| 20260506231156 | 15 | 204 | 6.4 | 9.7 | 0.00 | 0.66 | 0.66 | 77 | 1009.3 |
| 20260506230652 | 15 | 190 | 6.4 | 9.7 | 0.00 | 0.66 | 0.66 | 75 | 1009.3 |
| 20260506230149 | 15 | 223 | 4.8 | 8.0 | 0.00 | 0.66 | 0.66 | 77 | 1009.2 |
| 20260506225645 | 15 | 200 | 9.7 | 11.3 | 0.00 | 0.66 | 0.66 | 75 | 1009.2 |
| 20260506225143 | 15 | 213 | 1.6 | 1.6 | 0.00 | 0.66 | 0.66 | 78 | 1009.1 |
| 20260506224639 | 15 | 224 | 4.8 | 4.8 | 0.00 | 0.66 | 0.66 | 79 | 1009.2 |
| 20260506224135 | 15 | 211 | 4.8 | 4.8 | 0.00 | 0.66 | 0.66 | 78 | 1008.9 |
| 20260506223632 | 15 | 221 | 4.8 | 4.8 | 0.00 | 0.66 | 0.66 | 79 | 1009.0 |
| 20260506223128 | 15 | 206 | 3.2 | 3.2 | 0.00 | 0.66 | 0.66 | 77 | 1008.6 |
| 20260506222625 | 15 | 213 | 8.0 | 12.9 | 0.00 | 0.66 | 0.66 | 77 | 1008.6 |
| 20260506222121 | 15 | 213 | 6.4 | 8.0 | 0.00 | 0.66 | 0.66 | 75 | 1008.8 |
| 20260506221619 | 15 | 214 | 4.8 | 8.0 | 0.00 | 0.66 | 0.66 | 73 | 1008.7 |
| 20260506221117 | 15 | 207 | 11.3 | 12.9 | 0.00 | 0.66 | 0.66 | 73 | 1008.6 |
| 20260506220613 | 15 | 245 | 8.0 | 11.3 | 0.00 | 0.66 | 0.66 | 76 | 1008.7 |
| 20260506220108 | 16 | 238 | 11.3 | 12.9 | 0.00 | 0.66 | 0.66 | 77 | 1008.7 |
| 20260506215605 | 15 | 210 | 3.2 | 3.2 | 0.00 | 0.66 | 0.66 | 77 | 1008.7 |
| 20260506215101 | 16 | 207 | 9.7 | 12.9 | 0.00 | 0.66 | 0.66 | 76 | 1008.4 |
| 20260506214558 | 16 | 214 | 4.8 | 4.8 | 0.00 | 0.66 | 0.66 | 75 | 1008.4 |
| 20260506214055 | 16 | 212 | 8.0 | 11.3 | 0.00 | 0.66 | 0.66 | 75 | 1008.2 |
| 20260506213553 | 17 | 205 | 9.7 | 12.9 | 0.00 | 0.66 | 0.66 | 73 | 1008.2 |
| 20260506213050 | 17 | 215 | 1.6 | 1.6 | 0.00 | 0.66 | 0.66 | 71 | 1008.1 |
| 20260506212547 | 17 | 240 | 4.8 | 8.0 | 0.00 | 0.66 | 0.66 | 74 | 1007.8 |
| 20260506212042 | 17 | 205 | 14.5 | 20.9 | 0.00 | 0.66 | 0.66 | 74 | 1007.7 |
| 20260506211538 | 18 | 205 | 12.9 | 14.5 | 0.00 | 0.66 | 0.66 | 75 | 1007.6 |
| 20260506211035 | 17 | 192 | 8.0 | 9.7 | 0.00 | 0.66 | 0.66 | 76 | 1007.5 |
| 20260506210532 | 17 | 208 | 8.0 | 11.3 | 0.00 | 0.66 | 0.66 | 77 | 1007.1 |
| 20260506210029 | 17 | 198 | 4.8 | 8.0 | 0.00 | 0.66 | 0.66 | 78 | 1007.2 |
| 20260506205525 | 16 | 218 | 3.2 | 3.2 | 0.00 | 0.66 | 0.66 | 80 | 1007.1 |
| 20260506205021 | 16 | 187 | 17.7 | 22.5 | 0.00 | 0.66 | 0.66 | 80 | 1007.0 |
| 20260506204519 | 16 | 226 | 8.0 | 11.3 | 0.00 | 0.66 | 0.66 | 82 | 1007.0 |
| 20260506204016 | 16 | 202 | 14.5 | 17.7 | 0.00 | 0.66 | 0.66 | 81 | 1006.9 |
| 20260506203515 | 16 | 208 | 8.0 | 11.3 | 0.00 | 0.66 | 0.66 | 82 | 1007.0 |
| 20260506203011 | 16 | 201 | 11.3 | 22.5 | 0.00 | 0.66 | 0.66 | 84 | 1006.9 |
| 20260506202508 | 16 | 228 | 6.4 | 16.1 | 0.00 | 0.66 | 0.66 | 83 | 1007.1 |
| 20260506202004 | 16 | 202 | 9.7 | 12.9 | 0.00 | 0.66 | 0.66 | 84 | 1006.9 |
| 20260506201502 | 17 | 247 | 3.2 | 8.0 | 0.00 | 0.66 | 0.66 | 85 | 1006.8 |
| 20260506200957 | 17 | 235 | 6.4 | 9.7 | 0.00 | 0.66 | 0.66 | 84 | 1006.3 |
| 20260506200454 | 18 | 200 | 4.8 | 8.0 | 0.00 | 0.66 | 0.66 | 81 | 1006.6 |
| 20260506195951 | 18 | 214 | 6.4 | 8.0 | 0.00 | 0.66 | 0.66 | 80 | 1006.3 |
| 20260506195448 | 18 | 207 | 8.0 | 9.7 | 0.00 | 0.66 | 0.66 | 79 | 1006.6 |
| 20260506194944 | 18 | 203 | 6.4 | 8.0 | 0.00 | 0.66 | 0.66 | 79 | 1006.6 |
| 20260506194442 | 18 | 226 | 9.7 | 12.9 | 0.00 | 0.66 | 0.66 | 78 | 1006.6 |
| 20260506193938 | 18 | 193 | 8.0 | 9.7 | 0.00 | 0.66 | 0.66 | 80 | 1006.4 |
| 20260506193435 | 17 | 199 | 1.6 | 3.2 | 0.00 | 0.66 | 0.66 | 84 | 1006.5 |
| 20260506192932 | 17 | 218 | 4.8 | 4.8 | 0.00 | 0.66 | 0.66 | 85 | 1006.6 |
| 20260506192429 | 17 | 210 | 1.6 | 3.2 | 0.00 | 0.66 | 0.66 | 88 | 1006.7 |
| 20260506191926 | 17 | 232 | 4.8 | 4.8 | 0.00 | 0.66 | 0.66 | 89 | 1006.7 |
| 20260506191423 | 17 | 207 | 6.4 | 9.7 | 0.00 | 0.66 | 0.66 | 90 | 1006.8 |
| 20260506190919 | 17 | 209 | 8.0 | 11.3 | 0.00 | 0.66 | 0.66 | 89 | 1006.4 |
| 20260506190416 | 17 | 209 | 4.8 | 4.8 | 0.00 | 0.66 | 0.66 | 92 | 1006.5 |
| 20260506185913 | 17 | 227 | 4.8 | 4.8 | 0.00 | 0.66 | 0.66 | 92 | 1006.5 |
| 20260506185410 | 17 | 223 | 4.8 | 4.8 | 0.00 | 0.66 | 0.66 | 92 | 1006.5 |
| 20260506184907 | 17 | 224 | 4.8 | 4.8 | 0.00 | 0.66 | 0.66 | 92 | 1006.5 |
| 20260506184404 | 16 | 210 | 4.8 | 4.8 | 0.00 | 0.66 | 0.66 | 93 | 1006.6 |
| 20260506183901 | 16 | 198 | 4.8 | 4.8 | 0.00 | 0.66 | 0.66 | 93 | 1006.6 |
| 20260506183355 | 17 | 230 | 4.8 | 8.0 | 0.00 | 0.66 | 0.66 | 92 | 1006.6 |
| 20260506182853 | 17 | 214 | 3.2 | 3.2 | 0.00 | 0.66 | 0.66 | 92 | 1006.6 |
| 20260506182350 | 17 | 207 | 1.6 | 1.6 | 0.00 | 0.66 | 0.66 | 92 | 1006.5 |
| 20260506181848 | 17 | 211 | 6.4 | 8.0 | 0.00 | 0.66 | 0.66 | 91 | 1006.5 |
| 20260506181346 | 17 | 231 | 4.8 | 4.8 | 0.00 | 0.66 | 0.66 | 91 | 1006.8 |
| 20260506180843 | 17 | 221 | 4.8 | 4.8 | 0.00 | 0.66 | 0.66 | 92 | 1006.4 |
| 20260506180339 | 17 | 196 | 6.4 | 9.7 | 0.00 | 0.66 | 0.66 | 92 | 1006.5 |
| 20260506175835 | 17 | 219 | 6.4 | 8.0 | 0.00 | 0.66 | 0.66 | 92 | 1006.6 |
| 20260506175332 | 16 | 208 | 3.2 | 4.8 | 0.00 | 0.66 | 0.66 | 92 | 1006.6 |
| 20260506174829 | 16 | 220 | 4.8 | 4.8 | 0.00 | 0.66 | 0.66 | 93 | 1006.5 |
| 20260506174326 | 16 | 242 | 9.7 | 11.3 | 0.00 | 0.66 | 0.66 | 93 | 1006.6 |
| 20260506173824 | 16 | 232 | 11.3 | 14.5 | 0.00 | 0.66 | 0.66 | 94 | 1006.8 |
| 20260506173321 | 16 | 203 | 6.4 | 8.0 | 0.00 | 0.66 | 0.66 | 95 | 1006.6 |
| 20260506172818 | 16 | 184 | 4.8 | 4.8 | 0.00 | 0.66 | 0.66 | 95 | 1006.5 |
| 20260506172315 | 16 | 200 | 4.8 | 4.8 | 0.00 | 0.66 | 0.66 | 96 | 1006.4 |
| 20260506171812 | 16 | 247 | 8.0 | 9.7 | 0.00 | 0.66 | 0.66 | 96 | 1006.6 |
| 20260506171309 | 15 | 214 | 4.8 | 4.8 | 0.00 | 0.66 | 0.66 | 97 | 1006.8 |
| 20260506170807 | 15 | 206 | 4.8 | 4.8 | 0.00 | 0.66 | 0.66 | 98 | 1006.6 |
| 20260506170302 | 15 | 177 | 0.0 | 1.6 | 0.00 | 0.66 | 0.66 | 98 | 1006.7 |
| 20260506165801 | 15 | 206 | 1.6 | 1.6 | 0.00 | 0.66 | 0.66 | 98 | 1006.8 |
| 20260506165258 | 15 | 196 | 0.0 | 0.0 | 0.00 | 0.66 | 0.66 | 98 | 1006.7 |
| 20260506164755 | 15 | 197 | 0.0 | 0.0 | 0.00 | 0.66 | 0.66 | 98 | 1006.8 |
| 20260506164252 | 15 | 195 | 0.0 | 0.0 | 0.18 | 0.66 | 0.66 | 98 | 1006.8 |
| 20260506163749 | 15 | 187 | 0.0 | 0.0 | 0.18 | 0.66 | 0.66 | 97 | 1006.8 |
| 20260506163243 | 15 | 200 | 0.0 | 0.0 | 0.00 | 0.64 | 0.64 | 97 | 1006.8 |
| 20260506162740 | 15 | 199 | 0.0 | 0.0 | 0.00 | 0.64 | 0.64 | 97 | 1006.9 |
| 20260506162238 | 15 | 196 | 0.0 | 0.0 | 0.00 | 0.64 | 0.64 | 97 | 1007.1 |
| 20260506161735 | 15 | 197 | 0.0 | 0.0 | 0.00 | 0.64 | 0.64 | 97 | 1006.9 |
| 20260506161232 | 15 | 199 | 0.0 | 0.0 | 0.00 | 0.64 | 0.64 | 97 | 1006.9 |
| 20260506160729 | 15 | 192 | 0.0 | 0.0 | 0.00 | 0.64 | 0.64 | 97 | 1006.8 |
| 20260506160226 | 15 | 195 | 0.0 | 0.0 | 0.00 | 0.64 | 0.64 | 97 | 1007.0 |
| 20260506155725 | 15 | 200 | 0.0 | 0.0 | 0.00 | 0.64 | 0.64 | 97 | 1007.2 |
| 20260506155222 | 15 | 199 | 0.0 | 0.0 | 0.00 | 0.64 | 0.64 | 97 | 1007.0 |
| 20260506153329 | 15 | 200 | 0.0 | 0.0 | 0.00 | 0.64 | 0.64 | 97 | 1006.6 |
| 20260506152826 | 15 | 201 | 0.0 | 0.0 | 0.00 | 0.64 | 0.64 | 97 | 1006.4 |
| 20260506152323 | 14 | 201 | 0.0 | 0.0 | 0.00 | 0.64 | 0.64 | 97 | 1006.6 |
| 20260506151822 | 14 | 198 | 0.0 | 0.0 | 0.00 | 0.64 | 0.64 | 97 | 1006.6 |
| 20260506151318 | 14 | 200 | 0.0 | 0.0 | 0.00 | 0.64 | 0.64 | 97 | 1006.4 |
| 20260506150815 | 14 | 201 | 0.0 | 0.0 | 0.00 | 0.64 | 0.64 | 97 | 1006.3 |
| 20260506150312 | 14 | 202 | 0.0 | 0.0 | 0.00 | 0.64 | 0.64 | 98 | 1006.2 |
| 20260506145809 | 14 | 196 | 0.0 | 0.0 | 0.00 | 0.64 | 0.64 | 98 | 1006.4 |
| 20260506145306 | 13 | 201 | 0.0 | 0.0 | 0.00 | 0.64 | 0.64 | 98 | 1006.4 |
| 20260506144803 | 14 | 203 | 0.0 | 0.0 | 0.00 | 0.64 | 0.64 | 98 | 1006.2 |
| 20260506144259 | 14 | 199 | 0.0 | 0.0 | 0.00 | 0.64 | 0.64 | 98 | 1006.5 |
| 20260506143757 | 14 | 198 | 0.0 | 0.0 | 0.00 | 0.64 | 0.64 | 98 | 1006.3 |
| 20260506143254 | 13 | 199 | 0.0 | 0.0 | 0.00 | 0.64 | 0.64 | 98 | 1006.5 |
| 20260506142753 | 13 | 200 | 0.0 | 0.0 | 0.13 | 0.64 | 0.64 | 98 | 1006.5 |
| 20260506142250 | 13 | 201 | 0.0 | 0.0 | 0.13 | 0.64 | 0.64 | 98 | 1006.5 |
| 20260506141748 | 13 | 200 | 0.0 | 0.0 | 0.00 | 0.61 | 0.61 | 98 | 1006.6 |
| 20260506141246 | 13 | 199 | 0.0 | 0.0 | 0.18 | 0.61 | 0.61 | 98 | 1006.8 |
| 20260506140743 | 13 | 200 | 0.0 | 0.0 | 0.18 | 0.61 | 0.61 | 98 | 1006.8 |
| 20260506140240 | 13 | 201 | 0.0 | 0.0 | 0.30 | 0.61 | 0.61 | 98 | 1006.6 |
| 20260506135737 | 13 | 205 | 0.0 | 0.0 | 0.30 | 0.58 | 0.58 | 99 | 1006.7 |
| 20260506135233 | 13 | 201 | 0.0 | 0.0 | 0.18 | 0.56 | 0.56 | 99 | 1006.7 |
| 20260506134730 | 13 | 201 | 0.0 | 0.0 | 0.13 | 0.53 | 0.53 | 98 | 1006.9 |
| 20260506134227 | 13 | 201 | 0.0 | 0.0 | 0.13 | 0.53 | 0.53 | 98 | 1006.7 |
| 20260506133724 | 13 | 202 | 0.0 | 0.0 | 0.00 | 0.51 | 0.51 | 98 | 1006.7 |
| 20260506133221 | 13 | 202 | 0.0 | 0.0 | 0.18 | 0.51 | 0.51 | 99 | 1006.8 |
| 20260506132718 | 13 | 203 | 0.0 | 0.0 | 0.18 | 0.51 | 0.51 | 99 | 1006.7 |
| 20260506132215 | 13 | 202 | 0.0 | 0.0 | 0.13 | 0.48 | 0.48 | 98 | 1007.1 |
| 20260506131713 | 13 | 205 | 0.0 | 0.0 | 0.30 | 0.48 | 0.48 | 98 | 1006.9 |
| 20260506131208 | 13 | 201 | 0.0 | 0.0 | 0.30 | 0.46 | 0.46 | 98 | 1006.6 |
| 20260506130705 | 13 | 201 | 0.0 | 0.0 | 0.30 | 0.43 | 0.43 | 98 | 1006.8 |
| 20260506130202 | 13 | 201 | 0.0 | 0.0 | 0.18 | 0.41 | 0.41 | 98 | 1006.7 |
| 20260506125700 | 13 | 200 | 0.0 | 0.0 | 0.18 | 0.41 | 0.41 | 98 | 1006.7 |
| 20260506125158 | 13 | 200 | 0.0 | 0.0 | 0.18 | 0.38 | 0.38 | 98 | 1006.7 |
| 20260506124656 | 13 | 201 | 0.0 | 0.0 | 0.18 | 0.38 | 0.38 | 98 | 1006.9 |
| 20260506124154 | 13 | 202 | 0.0 | 0.0 | 0.13 | 0.36 | 0.36 | 98 | 1006.7 |
| 20260506123651 | 13 | 199 | 0.0 | 0.0 | 0.13 | 0.36 | 0.36 | 98 | 1006.7 |
| 20260506123149 | 13 | 201 | 0.0 | 0.0 | 0.00 | 0.33 | 0.33 | 98 | 1006.6 |
| 20260506122646 | 13 | 200 | 0.0 | 0.0 | 0.18 | 0.33 | 0.33 | 98 | 1006.7 |
| 20260506122143 | 13 | 201 | 0.0 | 0.0 | 0.30 | 0.33 | 0.33 | 98 | 1006.9 |
| 20260506121641 | 13 | 201 | 0.0 | 0.0 | 0.48 | 0.33 | 0.33 | 98 | 1007.0 |
| 20260506121137 | 13 | 201 | 0.0 | 0.0 | 0.30 | 0.28 | 0.28 | 98 | 1007.0 |
| 20260506120635 | 13 | 200 | 0.0 | 0.0 | 0.30 | 0.25 | 0.25 | 98 | 1007.0 |
| 20260506120132 | 13 | 200 | 0.0 | 0.0 | 0.30 | 0.23 | 0.23 | 97 | 1007.1 |
| 20260506115631 | 13 | 201 | 0.0 | 0.0 | 0.30 | 0.20 | 0.20 | 97 | 1007.3 |
| 20260506115129 | 13 | 203 | 0.0 | 0.0 | 0.30 | 0.18 | 0.18 | 97 | 1007.2 |
| 20260506114625 | 13 | 201 | 0.0 | 0.0 | 0.13 | 0.15 | 0.15 | 97 | 1007.0 |
| 20260506114124 | 13 | 202 | 0.0 | 0.0 | 0.18 | 0.13 | 0.13 | 97 | 1007.2 |
| 20260506113622 | 13 | 206 | 0.0 | 0.0 | 0.30 | 0.13 | 0.13 | 97 | 1007.4 |
| 20260506113119 | 13 | 202 | 0.0 | 0.0 | 0.13 | 0.10 | 0.10 | 96 | 1007.6 |
| 20260506112615 | 13 | 201 | 0.0 | 0.0 | 0.18 | 0.08 | 0.08 | 96 | 1007.1 |
| 20260506112112 | 13 | 204 | 0.0 | 0.0 | 0.18 | 0.08 | 0.08 | 96 | 1007.0 |
| 20260506111610 | 13 | 202 | 0.0 | 0.0 | 0.18 | 0.05 | 0.05 | 95 | 1006.8 |
| 20260506111108 | 13 | 204 | 0.0 | 0.0 | 0.18 | 0.05 | 0.05 | 95 | 1006.7 |
| 20260506110605 | 13 | 200 | 0.0 | 0.0 | 0.00 | 0.03 | 0.03 | 95 | 1006.4 |
| 20260506105558 | 13 | 201 | 0.0 | 0.0 | 0.13 | 0.03 | 0.03 | 94 | 1006.4 |